This demonstration page uses our WeatherBlox Daily Observations layout. Learn more.

Left ArrowRight Arrow

Hourly Observations for September 23, 2021

Temp ( °F °C ) Dew Point ( °F °C ) Humidity (%) Winds ( mph kmh ) Pressure ( in mb ) Visibility ( mi km ) Precip ( " mm )
12:52 am 00:52 Clear 52 11.1 48 8.9 86 86 Calm 30.15 1021 10 16 0.00 0.00
1:52 am 01:52 Clear 50 10 48 8.9 93 93 N 3 6 30.14 1021 10 16 0.00 0.00
2:52 am 02:52 Clear 50 10 47 8.3 89 89 Calm 30.13 1020 10 16 0.00 0.00
3:52 am 03:52 Clear 49 9.4 46 7.8 90 90 Calm 30.13 1020 10 16 0.00 0.00
4:52 am 04:52 Clear 49 9.4 46 7.8 90 90 Calm 30.11 1020 10 16 0.00 0.00
5:52 am 05:52 Clear 48 8.9 46 7.8 93 93 Calm 30.11 1020 10 16 0.00 0.00
6:52 am 06:52 Clear 49 9.4 45 7.2 86 86 Calm 30.12 1020 10 16 0.00 0.00
7:52 am 07:52 Sunny 49 9.4 44 6.7 83 83 SSE 5 7 30.12 1020 10 16 0.00 0.00
8:52 am 08:52 Sunny 55 12.8 45 7.2 69 69 SSE 8 13 30.11 1020 10 16 0.00 0.00
9:52 am 09:52 Sunny 61 16.1 44 6.7 54 54 SSE 12 19 30.10 1019 10 16 0.00 0.00
10:52 am 10:52 Sunny 68 20 43 6.1 40 40 SSE 16 26 30.09 1019 10 16 0.00 0.00
11:52 am 11:52 Sunny 73 22.8 43 6.1 34 34 SSE 13 20 30.06 1018 10 16 0.00 0.00
12:52 pm 12:52 Mostly Sunny 76 24.4 44 6.7 32 32 S 13 20 30.02 1017 10 16 0.00 0.00
1:52 pm 13:52 Mostly Sunny 78 25.6 44 6.7 30 30 S 16 26 29.99 1016 10 16 0.00 0.00
2:52 pm 14:52 Mostly Sunny 79 26.1 44 6.7 29 29 SSE 16 26 29.94 1014 10 16 0.00 0.00
3:52 pm 15:52 Mostly Sunny 81 27.2 44 6.7 27 27 S 16 26 29.92 1013 10 16 0.00 0.00
4:52 pm 16:52 Mostly Sunny 82 27.8 43 6.1 25 25 SSE 17 28 29.91 1013 10 16 0.00 0.00
5:52 pm 17:52 Sunny 81 27.2 43 6.1 26 26 SSE 15 24 29.90 1012 10 16 0.00 0.00
6:52 pm 18:52 Mostly Sunny 78 25.6 44 6.7 30 30 SSE 13 20 29.89 1012 10 16 0.00 0.00
7:52 pm 19:52 Mostly Clear 73 22.8 47 8.3 40 40 SSE 12 19 29.90 1013 10 16 0.00 0.00
8:52 pm 20:52 Mostly Clear 69 20.6 48 8.9 47 47 SSE 9 15 29.91 1013 10 16 0.00 0.00
9:52 pm 21:52 Clear 70 21.1 48 8.9 46 46 S 10 17 29.91 1013 10 16 0.00 0.00
10:52 pm 22:52 Partly Cloudy 68 20 48 8.9 49 49 S 15 24 29.91 1013 10 16 0.00 0.00
11:52 pm 23:52 Partly Cloudy 66 18.9 48 8.9 52 52 SSE 13 20 29.90 1013 10 16 0.00 0.00

Powered by AerisWeather